Location: Rogers' Astrophysics Observatory
(34.4289°N, 82.8708°W)
Time: 15:25:18
(UTC-04:00)

Envisat - Visible Passes

Search period start: 26 April 2018 00:00
Search period end: 06 May 2018 00:00
Orbit: 764 x 766 km, 98.2° (Epoch: 26 April)

Date Brightness Start Highest point End Pass type
(mag) Time Alt. Az. Time Alt. Az. Time Alt. Az.
26 Apr 5.3 21:59:41 10° SW 22:03:30 21° W 22:07:20 10° NW visible
27 Apr 3.8 21:21:42 10° S 21:26:36 51° W 21:31:33 10° NNW visible
28 Apr 3.0 20:44:53 10° SSE 20:49:54 67° ENE 20:54:57 10° N visible
28 Apr 5.8 22:27:55 10° WSW 22:29:18 11° W 22:30:43 10° WNW visible
29 Apr 4.9 21:48:00 10° SSW 21:52:17 27° W 21:56:36 10° NW visible
30 Apr 3.4 21:10:25 10° S 21:15:27 67° WSW 21:20:31 10° NNW visible
01 May 3.3 20:33:54 10° SSE 20:38:47 51° ENE 20:43:42 10° N visible
01 May 5.6 22:15:15 10° SW 22:18:03 15° W 22:20:52 10° WNW visible
02 May 4.5 21:36:28 10° SSW 21:41:05 35° W 21:45:44 10° NNW visible
03 May 3.1 20:59:14 10° SSE 21:04:18 86° WSW 21:09:24 10° NNW visible
04 May 5.4 22:03:14 10° SW 22:06:49 19° W 22:10:25 10° NW visible
05 May 4.0 21:25:03 10° S 21:29:54 46° W 21:34:46 10° NNW visible
